Total_Precipitation_Accumulation
1.08 1.18 1.29 1.35 1.37 1.45 1.55 1.65 1.70 1.66 1.49 1.31 1.30 1.30 1.29 1.31 1.47 1.19 1.11 1.29 1.22 1.18 1.15 1.08 0.99 0.96 0.94 0.95 0.99 1.07 1.12 1.14 1.19 1.23 1.27 1.32 1.36 1.43
0.84 0.92 1.03 1.14 1.22 1.30 1.41 1.48 1.50 1.48 1.45 1.28 1.20 1.21 1.21 1.19 1.31 1.00 0.98 1.16 1.06 1.00 0.97 0.96 0.92 0.88 0.86 0.86 0.87 0.89 0.89 0.88 0.91 0.92 0.92 0.93 1.02 1.14
0.84 0.89 0.93 0.99 1.05 1.09 1.14 1.20 1.30 1.37 1.45 1.44 1.30 1.24 1.22 1.18 1.13 0.97 0.88 0.84 0.89 0.94 0.89 0.87 0.83 0.79 0.77 0.73 0.66 0.62 0.61 0.63 0.67 0.71 0.73 0.75 0.78 0.83
0.72 0.76 0.77 0.76 0.83 0.91 0.96 0.99 1.06 1.14 1.26 1.37 1.30 1.17 1.11 1.10 1.06 0.98 0.84 0.73 0.70 0.78 0.75 0.71 0.70 0.68 0.64 0.60 0.56 0.50 0.46 0.45 0.49 0.53 0.58 0.63 0.68 0.72
0.60 0.60 0.63 0.64 0.67 0.70 0.73 0.78 0.84 0.89 0.98 1.05 1.07 1.01 0.97 0.93 0.94 0.89 0.80 0.78 0.67 0.68 0.62 0.58 0.56 0.54 0.51 0.45 0.43 0.45 0.43 0.39 0.34 0.35 0.39 0.45 0.49 0.52
0.41 0.43 0.49 0.55 0.57 0.58 0.56 0.58 0.63 0.73 0.80 0.87 0.89 0.88 0.86 0.81 0.82 0.83 0.77 0.70 0.64 0.53 0.54 0.48 0.44 0.41 0.41 0.40 0.37 0.36 0.36 0.36 0.35 0.32 0.29 0.28 0.28 0.27
0.30 0.29 0.32 0.40 0.48 0.49 0.47 0.50 0.57 0.65 0.69 0.73 0.72 0.70 0.71 0.75 0.77 0.71 0.65 0.60 0.55 0.47 0.51 0.48 0.46 0.46 0.50 0.48 0.42 0.37 0.35 0.32 0.28 0.25 0.22 0.21 0.20 0.19
0.30 0.30 0.30 0.32 0.36 0.37 0.42 0.53 0.63 0.64 0.66 0.69 0.67 0.68 0.68 0.67 0.67 0.66 0.66 0.66 0.66 0.52 0.52 0.50 0.46 0.51 0.49 0.46 0.42 0.36 0.32 0.31 0.28 0.24 0.22 0.19 0.18 0.19
0.32 0.33 0.29 0.28 0.32 0.33 0.38 0.45 0.50 0.52 0.60 0.71 0.77 0.73 0.72 0.73 0.75 0.71 0.72 0.75 0.72 0.62 0.69 0.65 0.49 0.46 0.37 0.33 0.32 0.27 0.28 0.29 0.27 0.24 0.23 0.21 0.19 0.19
0.32 0.33 0.34 0.34 0.34 0.36 0.36 0.39 0.45 0.51 0.54 0.60 0.73 0.71 0.65 0.68 0.73 0.77 0.79 0.79 0.77 0.73 0.77 0.79 0.55 0.46 0.35 0.40 0.37 0.25 0.22 0.23 0.23 0.22 0.21 0.20 0.19 0.20
0.27 0.26 0.29 0.32 0.34 0.34 0.38 0.47 0.52 0.56 0.49 0.52 0.61 0.68 0.70 0.70 0.67 0.71 0.86 0.98 0.93 0.74 0.70 0.76 0.64 0.52 0.43 0.43 0.38 0.30 0.24 0.22 0.18 0.16 0.18 0.20 0.21 0.21
0.30 0.28 0.26 0.27 0.28 0.28 0.36 0.49 0.59 0.59 0.53 0.56 0.70 0.79 0.77 0.82 0.78 0.79 0.96 1.01 0.96 0.89 0.72 0.73 0.70 0.65 0.62 0.46 0.41 0.38 0.37 0.33 0.25 0.20 0.17 0.18 0.23 0.28
0.34 0.36 0.33 0.24 0.21 0.24 0.31 0.41 0.49 0.48 0.56 0.72 0.79 0.81 0.82 0.86 0.81 0.75 0.85 0.93 0.99 1.03 0.80 0.76 0.78 0.76 0.76 0.60 0.41 0.36 0.39 0.43 0.45 0.46 0.39 0.31 0.28 0.27
0.37 0.36 0.32 0.23 0.22 0.25 0.31 0.39 0.42 0.49 0.66 0.80 0.85 0.84 0.78 0.76 0.75 0.70 0.74 0.77 0.84 0.87 0.77 0.75 0.85 0.87 0.79 0.66 0.50 0.38 0.40 0.49 0.61 0.71 0.68 0.57 0.44 0.38
0.27 0.25 0.23 0.25 0.28 0.40 0.41 0.41 0.49 0.66 0.77 0.80 0.84 0.85 0.75 0.67 0.63 0.60 0.63 0.70 0.75 0.67 0.55 0.54 0.68 0.69 0.69 0.66 0.59 0.50 0.47 0.49 0.62 0.78 0.83 0.77 0.65 0.51
0.26 0.27 0.32 0.38 0.42 0.51 0.57 0.63 0.67 0.70 0.68 0.73 0.76 0.73 0.63 0.57 0.59 0.58 0.62 0.67 0.73 0.68 0.51 0.42 0.48 0.56 0.61 0.56 0.56 0.55 0.51 0.60 0.66 0.76 0.89 0.93 0.79 0.58
0.22 0.35 0.53 0.58 0.63 0.67 0.71 0.75 0.77 0.71 0.65 0.64 0.64 0.64 0.60 0.57 0.54 0.51 0.56 0.58 0.62 0.62 0.54 0.43 0.41 0.43 0.41 0.42 0.50 0.52 0.50 0.57 0.69 0.76 0.87 1.03 0.99 0.73
0.27 0.47 0.56 0.59 0.62 0.62 0.62 0.66 0.71 0.69 0.61 0.57 0.57 0.58 0.56 0.53 0.53 0.49 0.48 0.55 0.59 0.53 0.48 0.40 0.36 0.36 0.37 0.35 0.42 0.49 0.51 0.63 0.73 0.73 0.70 0.86 1.06 0.93
0.41 0.52 0.53 0.54 0.57 0.54 0.53 0.57 0.59 0.57 0.51 0.48 0.47 0.44 0.42 0.42 0.45 0.46 0.42 0.43 0.43 0.39 0.35 0.30 0.28 0.33 0.38 0.44 0.49 0.63 0.64 0.64 0.65 0.64 0.64 0.73 0.98 0.98
0.46 0.48 0.47 0.47 0.49 0.49 0.47 0.45 0.43 0.39 0.35 0.36 0.39 0.37 0.34 0.36 0.39 0.39 0.33 0.31 0.35 0.34 0.31 0.26 0.22 0.27 0.35 0.43 0.62 0.77 0.74 0.56 0.50 0.61 0.71 0.76 0.88 0.90
0.37 0.39 0.40 0.38 0.39 0.43 0.41 0.36 0.31 0.29 0.27 0.26 0.29 0.31 0.32 0.31 0.31 0.29 0.23 0.19 0.24 0.26 0.28 0.28 0.24 0.23 0.26 0.29 0.44 0.65 0.70 0.77 0.68 0.65 0.70 0.69 0.59 0.50
0.30 0.31 0.29 0.28 0.30 0.31 0.28 0.26 0.24 0.24 0.22 0.20 0.20 0.21 0.24 0.26 0.24 0.22 0.17 0.17 0.18 0.18 0.20 0.22 0.21 0.20 0.23 0.29 0.42 0.56 0.58 0.54 0.54 0.59 0.62 0.48 0.34 0.35
0.29 0.27 0.24 0.22 0.21 0.21 0.21 0.21 0.20 0.19 0.19 0.20 0.19 0.18 0.18 0.18 0.17 0.15 0.13 0.11 0.11 0.11 0.13 0.16 0.16 0.16 0.17 0.19 0.25 0.31 0.29 0.23 0.18 0.20 0.37 0.48 0.44 0.48